Regional Weather Roundup
Issued by NWS

Home | Current Version | Previous Version | Graphics & Text | Print | Product List | Glossary On
Versions: 1 2 3 4 5 6 7 8 9 10 11 12 13 14 15 16 17 18 19 20 21 22 23 24 25 26 27 28 29 30 31 32 33 34 35 36 37 38 39 40 41 42 43 44 45 46 47 48 49 50
000
ASUS43 KFSD 231610
RWRSD

WEATHER ROUNDUP FOR SOUTH DAKOTA
NATIONAL WEATHER SERVICE SIOUX FALLS SD
1100 AM CDT TUE MAY 23 2017

NOTE: "FAIR" INDICATES FEW OR NO CLOUDS BELOW 12,000 FEET WITH NO
SIGNIFICANT WEATHER AND/OR OBSTRUCTIONS TO VISIBILITY.


SDZ001>005-009-010-012>017-231700-
NORTHWEST AND NORTH CENTRAL SOUTH DAKOTA

CITY           SKY/WX    TMP DP  RH WIND       PRES   REMARKS
BUFFALO          N/A     58  35  42 N12G17    30.09F
FAITH            N/A     56  36  47 N24G36    30.10S
MOBRIDGE       PTSUNNY   57  38  48 N21G31    30.02S
$$

SDZ012>016-024>037-041>051-057-063-072>074-231700-
SOUTHWEST AND SOUTH CENTRAL SOUTH DAKOTA

CITY           SKY/WX    TMP DP  RH WIND       PRES   REMARKS
RAPID CTY ARPT SUNNY     56  36  47 N15G23    30.14F
PIERRE         LGT RAIN  52  38  58 N22G35    30.04R
CUSTER         PTSUNNY   48  29  47 N16G25    30.16S
ELLSWORTH AFB  SUNNY     56  35  46 N15G24    30.14F
PHILIP         PTSUNNY   58  38  47 N25G32    30.08F
PINE RIDGE     MOSUNNY   55  39  54 N15G23    30.13F
SPEARFISH      FAIR      54  37  54 NW9G15    30.18F
WINNER         CLOUDY    51  41  68 NW23G30   30.02S
$$

SDZ004>011-016>023-039-040-231700-
NORTHEAST SOUTH DAKOTA

CITY           SKY/WX    TMP DP  RH WIND       PRES   REMARKS
ABERDEEN       CLOUDY    50  41  71 N17G29    29.99S
WATERTOWN      CLOUDY    47  45  93 N16       29.90F
BROOKINGS      LGT RAIN  48  45  87 N16       29.90S
SISSETON         N/A     49  48  97 N21       29.92S
$$

SDZ017-020-022-023-036>040-048>070-231700-
SOUTHEAST SOUTH DAKOTA

CITY           SKY/WX    TMP DP  RH WIND       PRES   REMARKS
SIOUX FALLS    LGT RAIN  53  49  86 N13       29.90S
HURON          CLOUDY    50  45  83 N15       29.95S
CHAMBERLAIN    CLOUDY    52  42  69 N16       30.00S
MITCHELL       CLOUDY    52  45  77 N17       29.95F
YANKTON        CLOUDY    51  46  83 NW20      29.92F
$$

ABBREVIATIONS USED IN REMARKS
   TC - TEMPERATURE IN CELSIUS
  WCI - WIND CHILL INDEX
   HX - HEAT INDEX
  VSB - VISIBILITY





USA.gov is the U.S. government's official web portal to all federal, state and local government web resources and services.